Theta_e
302 296 294 297 299 297 295 292 292 295 300 297 295 297 299 303 303 303 304 304 307 310 312 316 322 325 325 327 328 328 328 329 326 324 322 322 321 322 321 321 321 322 322 322
297 293 298 300 300 298 296 292 292 294 299 296 295 295 299 301 300 302 303 303 304 309 311 313 319 323 324 325 327 328 329 328 327 327 326 325 324 323 323 323 321 321 321 321
292 294 300 298 296 296 295 293 291 292 296 297 295 292 295 299 302 303 305 304 303 306 310 310 315 320 323 324 325 327 329 328 329 328 327 324 323 322 322 322 322 321 321 321
295 298 297 297 295 295 290 297 296 294 293 286 294 283 291 295 298 300 303 304 305 306 307 312 310 317 322 324 326 327 328 329 329 328 326 325 323 321 323 324 324 323 322 321
290 293 293 294 296 298 294 298 296 294 291 290 290 285 289 295 295 298 299 301 303 306 307 309 311 312 321 324 324 325 327 328 329 328 328 326 325 326 326 325 323 323 323 323
292 297 295 294 298 300 300 296 294 293 292 285 290 288 288 292 295 296 300 301 301 302 305 308 311 312 315 322 323 324 325 326 329 328 328 327 326 325 324 323 322 323 324 323
291 291 296 298 294 297 297 291 284 283 282 282 289 287 291 294 296 297 298 300 301 301 303 305 309 310 311 315 321 322 323 324 327 328 327 328 327 327 326 324 323 323 323 324
284 282 293 296 294 292 292 291 282 276 279 281 289 284 288 298 301 302 302 301 300 303 302 303 305 307 309 311 315 321 321 323 325 327 327 328 328 328 327 327 326 325 325 326
283 283 294 296 296 296 290 290 293 285 279 283 283 288 294 297 296 296 298 299 298 300 301 302 304 304 305 308 311 315 320 323 324 325 326 327 328 328 327 327 327 326 327 327
286 280 290 294 296 295 293 296 287 287 278 277 281 281 285 290 293 295 296 296 297 299 300 301 302 303 304 305 307 310 314 319 321 324 325 325 326 327 328 328 327 326 327 327
287 283 283 292 290 289 290 291 291 288 287 278 276 280 289 292 294 294 295 297 296 298 299 300 301 302 303 303 304 307 310 312 314 318 322 323 324 326 327 327 327 327 327 326
288 284 278 284 291 294 294 291 292 285 282 285 283 282 293 294 296 294 292 294 297 298 298 299 300 301 301 301 302 303 305 307 310 313 314 318 320 322 324 325 327 327 326 327
289 280 270 277 284 287 288 291 291 290 285 281 279 281 293 291 290 291 292 292 293 293 293 295 296 297 298 299 300 302 303 304 306 307 310 311 314 317 320 323 325 326 326 325
293 283 278 276 278 285 282 285 288 289 283 284 284 286 291 292 289 290 290 291 292 292 294 295 296 296 296 298 298 299 301 301 303 304 305 307 309 312 316 319 322 323 324 324
289 276 281 281 283 284 282 284 286 285 286 282 286 286 290 292 289 288 289 291 292 293 294 294 295 295 296 296 296 298 299 300 300 301 302 304 307 308 311 314 318 320 321 322
288 276 282 276 283 283 279 283 283 285 286 286 286 283 292 291 287 288 289 290 291 290 290 292 293 295 295 294 296 298 300 301 301 300 301 303 304 305 308 310 313 315 316 318
286 280 272 268 280 280 276 280 282 283 285 286 282 288 293 288 288 288 288 288 288 289 290 292 292 292 293 294 298 297 297 300 301 301 301 301 300 302 304 307 308 309 313 315
285 284 278 270 270 266 281 285 286 284 286 287 287 288 289 289 290 289 289 287 288 289 290 291 291 291 293 294 294 296 296 296 296 296 297 294 293 297 299 301 303 307 310 310
288 284 277 270 259 274 279 282 282 282 280 282 286 289 288 287 284 283 285 286 287 288 288 288 289 290 290 291 292 292 292 293 293 293 294 293 293 294 295 296 299 304 303 305
287 286 278 263 264 262 276 281 285 284 274 276 277 276 276 282 280 280 281 283 284 285 284 286 286 286 287 288 289 289 289 289 291 293 294 295 294 293 294 296 297 300 300 302
281 282 277 263 262 268 280 283 284 270 273 274 273 273 274 274 276 278 279 279 281 281 282 283 283 282 284 285 285 284 286 287 290 291 292 294 294 292 293 294 296 297 295 293
278 275 277 268 262 268 276 280 278 272 273 272 272 272 270 271 272 273 274 275 276 277 278 279 278 279 280 282 282 283 284 287 288 289 290 291 293 293 293 292 293 292 292 291
277 279 275 278 275 273 273 270 271 271 270 271 269 269 268 269 269 270 270 272 273 274 274 276 275 276 278 280 282 281 282 284 285 286 287 288 290 291 292 291 290 291 291 293
279 275 277 277 271 271 271 270 270 270 269 269 268 268 268 267 268 269 269 270 270 271 272 273 273 274 274 276 278 279 280 282 283 283 285 287 288 289 291 290 290 291 291 291
271 274 271 273 270 270 271 268 268 268 268 267 267 267 267 267 267 267 268 268 269 269 270 270 270 270 271 273 274 276 279 279 279 281 281 283 285 287 290 290 290 290 292 293
266 265 271 268 266 266 267 267 267 265 265 266 265 265 266 266 266 266 266 267 267 266 267 267 268 268 269 270 271 272 274 277 278 278 280 282 285 287 289 289 289 291 292 292
Wind_Speed
6 7 21 24 12 7 8 5 11 7 14 9 11 15 14 11 8 9 10 9 10 11 10 11 16 17 14 13 15 16 16 15 12 10 9 9 11 8 7 8 11 12 11 13
5 19 18 7 10 10 11 10 13 4 6 9 10 16 9 10 7 7 10 11 11 9 8 9 14 14 16 17 16 16 17 16 15 12 11 9 9 7 9 8 9 12 12 13
15 5 10 11 8 16 14 18 4 4 5 6 4 7 5 7 8 11 14 12 9 12 12 9 12 15 16 16 16 16 17 17 18 17 9 5 4 3 6 8 10 12 12 13
11 12 18 16 15 13 14 7 6 3 1 5 3 8 7 6 12 10 12 14 15 16 11 9 10 14 16 17 17 18 16 18 17 18 14 17 14 14 13 12 11 11 12 14
15 10 11 17 26 12 12 9 7 5 5 2 9 3 7 11 15 11 9 11 12 16 15 15 9 11 14 16 17 18 17 16 16 17 18 15 16 14 10 10 12 13 12 14
8 8 10 9 5 13 6 5 3 2 2 9 21 9 8 12 10 6 9 10 7 10 10 11 10 7 10 13 14 15 17 17 15 16 19 19 20 16 12 12 11 11 11 11
17 10 4 7 8 6 10 9 4 7 8 8 6 9 19 7 8 7 10 10 7 3 4 6 7 8 8 12 16 13 14 16 17 17 17 20 19 17 18 16 13 13 11 11
16 11 15 7 10 9 9 13 6 9 6 6 7 8 10 13 20 21 17 11 5 7 4 5 6 3 6 8 11 15 13 17 17 19 20 19 21 14 14 15 13 12 13 13
11 7 5 5 4 10 5 12 8 4 2 2 4 7 10 10 8 2 4 8 8 8 9 9 9 6 7 8 4 7 11 14 15 17 17 17 17 19 17 18 15 13 14 13
2 2 4 18 5 4 6 9 5 4 6 9 5 4 7 2 6 8 9 8 6 7 9 9 9 10 9 8 8 4 8 11 12 14 14 15 17 17 18 16 17 17 17 16
1 5 4 10 12 16 6 4 2 1 5 5 3 7 9 8 6 8 6 5 4 5 5 6 7 7 7 8 8 8 7 6 7 7 11 11 13 15 16 16 17 18 17 17
4 4 2 9 4 9 14 14 8 5 7 4 3 7 3 9 9 6 5 5 5 3 2 2 4 6 7 8 9 9 8 8 9 8 8 9 10 12 14 17 18 18 18 18
10 3 3 6 6 2 9 8 6 2 3 5 5 8 1 1 2 3 4 3 3 4 5 4 4 5 5 7 8 9 9 8 8 8 10 11 12 12 15 18 18 17 17 18
12 5 8 11 5 6 6 7 9 12 7 17 12 14 21 16 5 3 4 8 9 7 7 8 8 6 5 7 7 8 10 8 9 9 11 11 12 12 14 15 15 16 16 18
8 7 5 3 5 3 3 13 16 17 20 9 19 16 27 16 5 3 2 5 9 9 9 8 8 7 7 8 8 8 8 8 8 10 12 12 13 11 12 12 14 15 16 17
4 2 6 1 1 5 4 10 7 11 11 11 13 9 19 5 3 5 4 5 5 7 9 9 8 8 8 8 7 8 8 10 9 11 14 13 11 9 11 12 13 13 15 15
11 6 4 5 2 3 14 12 10 8 7 11 13 23 19 9 6 3 5 4 7 8 9 7 7 7 9 8 8 9 12 13 14 15 14 15 11 12 13 13 12 14 16 13
11 8 4 3 4 6 8 1 12 18 17 14 11 9 8 14 11 3 8 10 10 14 13 12 11 13 13 14 14 14 14 15 16 17 15 9 10 15 14 13 14 15 12 13
8 7 4 6 4 7 8 7 8 9 1 14 15 15 11 14 3 5 13 13 12 11 12 13 13 14 14 13 14 17 18 17 15 15 16 11 12 15 14 14 16 15 11 12
7 7 5 4 6 7 7 7 4 6 2 13 16 14 16 14 6 2 21 18 16 13 14 16 19 19 16 15 15 17 19 20 17 14 17 16 14 15 17 16 17 15 12 15
6 7 10 4 4 8 10 8 3 7 2 7 13 13 14 7 7 16 16 16 15 16 18 19 18 18 17 16 17 20 20 20 19 16 17 17 15 15 17 17 14 12 12 8
9 7 7 4 4 9 10 3 2 4 7 11 10 11 14 14 18 17 15 14 15 17 20 18 19 20 19 17 16 20 22 18 19 19 22 21 18 15 14 15 15 12 11 12
4 6 8 5 5 10 17 20 12 8 4 8 9 12 14 18 19 21 24 23 21 20 19 18 19 23 19 17 15 22 23 20 20 22 25 22 20 18 16 15 14 10 12 13
2 6 5 6 0 9 12 12 11 8 8 8 10 13 15 16 19 21 21 20 21 19 20 19 21 22 26 19 21 21 22 21 20 22 24 21 20 21 18 12 11 11 12 13
3 7 3 7 8 12 7 14 11 10 9 10 10 11 14 16 18 19 20 21 20 21 20 19 21 23 26 25 25 22 19 22 24 23 23 23 18 19 19 15 13 13 16 17
6 4 1 3 5 2 3 11 13 12 13 13 14 15 14 15 18 20 17 18 19 20 21 21 22 22 24 24 27 25 22 21 20 23 19 18 17 16 15 14 14 22 23 21
Wind_Direction
187 169 209 207 204 203 183 203 212 231 235 231 238 251 244 247 229 251 264 264 264 259 235 210 197 194 187 191 194 195 194 194 181 186 189 200 208 202 204 205 203 203 200 202
163 215 214 156 195 208 223 224 238 259 246 198 251 258 219 231 236 223 261 262 256 260 276 216 204 192 188 193 201 203 205 192 192 194 199 202 202 212 210 209 209 209 206 203
192 203 159 184 193 208 224 226 226 228 321 327 327 273 227 262 261 259 256 257 240 238 247 241 211 198 192 192 195 209 211 196 196 195 191 189 185 191 205 211 212 213 207 203
215 244 192 188 202 197 217 177 206 214 297 251 52 282 230 234 256 258 250 251 250 248 247 231 214 208 196 198 194 201 209 207 201 193 193 197 204 209 215 213 219 216 210 212
213 175 202 192 207 173 223 158 189 175 226 223 256 292 294 206 249 254 259 248 250 245 236 240 220 208 207 200 197 202 199 210 208 202 200 200 208 213 207 210 208 207 211 213
198 180 183 199 152 189 149 86 86 56 153 238 243 196 243 241 253 237 248 265 266 283 259 258 249 206 202 208 208 201 202 207 208 212 213 213 213 212 208 206 205 209 210 209
207 228 171 176 161 164 171 137 196 215 220 232 221 187 246 246 278 248 244 270 254 268 7 262 244 232 213 200 205 202 202 211 206 209 215 222 228 222 220 214 215 205 210 212
186 198 201 190 201 189 187 186 174 205 191 217 156 211 256 236 236 248 254 262 333 305 315 288 280 273 284 244 216 205 202 216 210 211 217 214 218 221 228 226 228 226 216 216
183 231 147 193 163 157 186 214 216 67 59 99 215 263 308 259 233 277 310 28 12 18 25 8 7 23 347 347 304 237 218 222 219 218 222 223 222 223 227 224 222 228 227 226
164 131 204 192 109 238 165 157 202 193 191 225 238 258 234 163 77 75 79 66 40 19 20 11 6 0 352 347 319 268 233 236 236 228 226 228 228 228 229 227 226 227 230 225
177 118 273 128 196 189 156 185 156 120 188 193 188 247 203 239 136 133 108 119 110 70 27 5 354 339 321 322 330 319 311 275 264 249 243 238 233 232 233 230 230 228 228 227
183 137 145 210 177 183 202 197 163 175 190 195 178 257 113 135 159 117 29 13 102 135 147 270 279 302 327 323 314 304 303 299 279 263 244 238 236 236 234 232 231 229 228 227
164 207 75 359 358 7 203 209 217 208 40 194 182 260 112 265 256 358 358 57 347 331 306 260 281 288 273 282 292 297 294 276 273 280 262 253 250 236 233 236 236 232 231 230
149 159 189 188 188 143 187 188 198 198 213 229 220 258 262 253 285 11 1 338 341 333 327 319 323 308 310 300 297 294 298 281 281 280 272 267 259 253 251 247 243 236 229 228
145 183 151 201 75 101 192 208 202 206 222 197 235 233 260 264 141 168 310 348 313 312 311 306 300 313 307 312 308 304 292 295 278 284 284 269 262 255 258 254 251 242 232 225
170 240 130 244 211 142 237 233 225 240 244 252 253 259 254 273 126 249 25 264 268 283 281 278 295 309 328 328 315 314 312 309 310 295 293 288 279 263 253 253 247 239 234 231
152 115 83 252 195 45 268 204 219 216 197 215 225 237 266 306 269 259 193 276 266 266 285 319 332 338 342 333 332 324 331 332 324 317 313 310 293 274 266 261 253 244 242 231
156 126 103 188 67 210 279 143 209 216 232 233 265 276 262 269 277 342 11 12 21 20 8 3 356 341 337 333 331 327 324 315 309 310 307 293 282 281 278 269 258 256 243 230
150 133 139 150 203 300 300 230 180 169 65 13 281 256 291 321 37 116 24 14 7 3 354 338 326 326 327 333 333 328 320 311 313 306 301 289 282 284 285 275 272 260 238 232
141 137 126 85 148 204 244 282 180 102 177 14 14 19 0 332 292 64 352 348 344 350 339 331 330 322 320 328 326 316 308 304 307 302 298 295 289 282 283 278 272 262 237 234
159 170 196 177 196 282 263 297 46 101 217 11 11 4 359 352 314 316 328 328 327 327 324 323 317 309 314 322 317 304 299 300 303 300 292 293 288 278 273 274 269 254 232 224
168 148 187 105 99 250 9 8 187 33 34 360 1 7 340 320 311 313 316 320 320 319 318 320 314 311 314 315 305 297 293 309 304 303 299 295 291 282 278 270 267 246 228 222
192 185 168 165 175 88 54 87 69 45 34 6 5 343 331 321 323 323 323 326 327 324 320 317 311 305 305 303 303 298 300 307 303 300 295 293 292 284 275 267 260 242 231 228
57 9 114 130 346 114 102 69 44 45 51 4 348 333 333 323 321 315 316 321 323 321 318 316 312 305 303 307 299 292 303 302 298 295 291 293 290 289 280 262 247 232 231 228
359 340 65 85 70 129 106 41 25 14 4 1 353 343 332 325 322 320 321 320 316 314 315 314 308 302 301 306 300 299 303 309 296 295 293 290 286 281 278 263 245 231 232 222
5 24 28 117 87 0 316 355 22 0 358 356 351 346 341 335 327 325 314 312 314 315 315 308 307 304 305 305 302 303 301 296 292 293 289 287 289 285 276 266 263 241 236 231